This demonstration page uses our WeatherBlox Daily Observations layout. Learn more.

Left ArrowRight Arrow

31.84235, -102.49876

Hourly Observations for August 14, 2015

Temp ( °F °C ) Dew Point ( °F °C ) Humidity (%) Winds ( mph kmh ) Pressure ( in mb ) Visibility ( mi km ) Precip ( " mm )
12:53 am 00:53 Clear 86 30 58 14.4 39 39 S 12 19 29.93 1014 10 16 0.00 0.00
1:53 am 01:53 Clear 85 29.4 60 15.6 43 43 S 9 15 29.92 1013 10 16 0.00 0.00
2:53 am 02:53 Clear 84 28.9 60 15.6 44 44 S 10 17 29.92 1013 10 16 0.00 0.00
3:53 am 03:53 Clear 82 27.8 60 15.6 47 47 S 8 13 29.92 1013 10 16 0.00 0.00
4:53 am 04:53 Clear 80 26.7 60 15.6 51 51 SSW 5 7 29.92 1013 10 16 0.00 0.00
5:53 am 05:53 Clear 79 26.1 60 15.6 52 52 SSW 6 9 29.93 1014 10 16 0.00 0.00
6:53 am 06:53 Clear 79 26.1 60 15.6 52 52 SSW 6 9 29.94 1014 10 16 0.00 0.00
7:53 am 07:53 Sunny 79 26.1 61 16.1 54 54 S 3 6 29.96 1015 9 14 0.00 0.00
8:53 am 08:53 Sunny 84 28.9 61 16.1 46 46 S 6 9 29.98 1015 10 16 0.00 0.00
9:48 am 09:48 Mostly Sunny 88 31 61 16 40 40 S 14 22 29.91 1013 10 16 0.00 0.00
9:53 am 09:53 Mostly Sunny 88 31.1 62 16.7 42 42 S 15 24 29.98 1015 10 16 0.00 0.00
10:53 am 10:53 Sunny 93 33.9 61 16.1 34 34 SSW 8 13 29.98 1015 10 16 0.00 0.00
11:53 am 11:53 Sunny 95 35 58 14.4 29 29 SW 3 6 29.98 1015 10 16 0.00 0.00
12:53 pm 12:53 Sunny 98 36.7 56 13.3 24 24 S 9 15 29.95 1014 10 16 0.00 0.00
1:53 pm 13:53 Mostly Sunny 101 38.3 55 12.8 22 22 E 3 6 29.93 1014 10 16 0.00 0.00
2:33 pm 14:33 Partly Cloudy with Nearby Thunderstorms 100 37.8 54 12.2 21 21 VRB 7 11 29.80 1009 10 16 0.00 0.00
2:53 pm 14:53 Partly Cloudy with Nearby Thunderstorms 100 37.8 55 12.8 22 22 N 6 9 29.91 1013 10 16 0.00 0.00
3:28 pm 15:28 Partly Cloudy with Thunderstorms 101 38.3 55 12.8 22 22 VRB 3 6 29.77 1008 10 16 0.00 0.00
3:53 pm 15:53 Mostly Cloudy with Thunderstorms 89 31.7 62 16.7 41 41 ENE 9 15 29.91 1013 5 8 0.00 0.03
4:07 pm 16:07 Mostly Cloudy with Nearby Thunderstorms 94 34.4 63 17.2 36 36 SW 7 11 29.83 1010 10 16 0.00 0.03
4:17 pm 16:17 Partly Cloudy with Thunderstorms 98 36.7 61 16.1 29 29 SW 3 6 29.80 1009 10 16 0.00 0.03
4:32 pm 16:32 Sunny with Nearby Thunderstorms 97 36.1 56 13.3 25 25 NNW 14 22 29.80 1009 10 16 0.00 0.03
4:53 pm 16:53 Partly Cloudy with Nearby Thunderstorms 90 32.2 59 15 35 35 NNW 10 17 29.88 1012 10 16 0.00 0.03
5:36 pm 17:36 Sunny 95 35 56 13.3 27 27 VRB 5 7 29.77 1008 10 16 0.00 0.03
5:53 pm 17:53 Mostly Sunny 97 36.1 58 14.4 27 27 S 16 26 29.88 1012 9 14 0.00 0.03
6:08 pm 18:08 Mostly Sunny 93 33.9 58 14.4 31 31 S 13 20 29.83 1010 10 16 0.00 0.00
6:53 pm 18:53 Sunny 93 33.9 57 13.9 30 30 S 7 11 29.88 1012 10 16 0.00 0.00
7:53 pm 19:53 Sunny 91 32.8 57 13.9 32 32 SSW 14 22 29.87 1012 10 16 0.00 0.00
8:02 pm 20:02 Sunny with Nearby Thunderstorms 89 31.7 58 14.4 35 35 SSW 18 30 29.80 1009 10 16 0.00 0.00
8:24 pm 20:24 Partly Cloudy with Thunderstorms 86 30 61 16.1 43 43 SSW 13 20 29.85 1011 10 16 0.00 0.00
10:09 pm 22:09 Mostly Clear with Thunderstorms 73 23 N/A N/A undefined N/A 30.06 1018 N/A 0.00 0.00
10:31 pm 22:31 Mostly Clear with Nearby Thunderstorms 72 22.2 69 20.6 91 91 S 16 26 30.06 1018 8 13 0.00 0.00
10:53 pm 22:53 Partly Cloudy with Nearby Thunderstorms 72 22.2 66 18.9 82 82 SSW 17 28 30.02 1017 10 16 0.00 0.00
11:07 pm 23:07 Mostly Clear 71 21.7 66 18.9 84 84 SSW 16 26 30.00 1016 10 16 0.00 0.00
11:53 pm 23:53 Clear 74 23.3 63 17.2 69 69 SW 13 20 29.97 1015 10 16 0.00 0.00

Powered by AerisWeather